Location: *
(43.9905°S, 176.4941°W)
Time: 17:04:08
(UTC+00:00)

CZ-3 Stage 3 - Pass Details

Date: 08 December 2019
Orbit: 238 x 16008 km, 30.8° (Epoch: 23 January)

Event Time Altitude Azimuth Distance (km) Brightness Sun altitude
Exits shadow 10:12:08 28° 2° (N) 2,564 4.1 -20.5°
Maximum altitude 10:15:33 35° 38° (NE) 3,084 4.5 -20.7°
Drops below altitude 10° 10:42:27 10° 91° (E) 11,183 7.8 -22.1°
Sets 11:05:02 0° 94° (E) 16,124 8.7 -22.9°
